Location: Chavoire
(45.8956°N, 6.1666°E)
Time: 23:22:27
(UTC+00:00)

Daily predictions for brighter satellites

Satellite Brightness Start Highest point End
(mag) Time Altitude Azimuth Time Altitude Azimuth Time Altitude Azimuth
BREEZE-M R/B 3.9 17:30:32 10° WNW 17:34:43 71° NNE 17:43:32 10° ESE
Cosmos 1821 Rocket 4.4 17:31:52 10° N 17:37:52 43° ENE 17:43:52 10° SE
USA 81 4.1 17:33:34 10° SSE 17:38:42 57° E 17:43:52 10° NNE
COSMOS 2455 2.9 17:33:12 10° NNW 17:39:13 67° NE 17:45:11 10° SE
CZ-4 R/B 3.0 17:38:25 10° E 17:40:39 15° ENE 17:42:53 10° NNE
SL-4 R/B 4.1 17:40:08 10° SSE 17:41:27 11° SE 17:42:46 10° ESE
Cosmos 1805 3.1 17:39:07 10° S 17:42:51 68° E 17:46:37 10° NNE
NOSS 0 Rocket 4.3 17:39:06 10° S 17:44:54 44° ESE 17:50:46 10° NE
CZ-4C R/B 4.5 17:41:35 10° NW 17:45:11 16° N 17:49:14 10° NE
Meteor 2-10 4.4 17:39:56 10° S 17:45:40 86° W 17:51:18 10° N
SL-8 Rocket 4.2 17:40:24 10° N 17:46:42 81° W 17:53:00 10° S
ATLAS 3B R/B 2.8 17:41:19 10° SSW 17:48:09 74° ESE 17:55:33 10° NE
CENTAUR R/B 4.5 17:42:36 10° NW 17:48:17 23° NNE 17:54:38 10° ENE
DEBRIS 3.1 17:46:23 10° W 17:48:21 33° SSW 17:50:38 10° SE
Cosmos 2322 3.9 17:42:46 10° SSW 17:48:30 84° WNW 17:54:16 10° NNE
Cosmos 1943 Rocket 3.2 17:44:04 10° N 17:48:53 27° NE 17:53:37 10° ESE
Cosmos 1869 Rocket 4.1 17:45:30 10° SSE 17:49:27 34° E 17:53:23 10° NNE
COSMO-SKYMED 1 2.6 17:46:09 10° NNE 17:50:31 84° ESE 17:54:52 10° SSW
Cosmos 1818 3.7 17:45:15 10° NW 17:50:46 86° SW 17:56:14 10° SSE
Cosmos 2366 rocket 4.1 17:45:08 10° N 17:51:20 86° W 17:57:28 10° S
Cosmos 2333 Rocket 3.7 17:47:08 10° WSW 17:52:23 39° NW 17:57:43 10° NNE
Cosmos 1470 4.3 17:51:12 10° ESE 17:53:31 15° E 17:55:50 10° NE
COSMOS 2428 2.7 17:51:06 10° SSW 17:56:46 89° ESE 18:02:29 10° NNE
Okean 3 4.1 17:53:07 10° NNW 17:57:12 59° W 18:01:16 10° S
Cosmos 1340 Rocket 3.6 17:54:26 10° NNW 17:58:25 57° W 18:02:19 10° S
SJ-6B 4.3 17:55:47 10° ESE 17:58:42 20° ENE 18:01:36 10° NNE
Okean 1-7 3.4 17:56:57 10° NNW 18:01:17 69° W 18:05:36 10° S
Nadezhda 3 Rocket 4.3 17:55:59 10° SSE 18:01:59 46° E 18:07:59 10° NNE
Okean O Rocket 3.0 18:02:09 12° ESE 18:04:53 20° ENE 18:08:06 10° NNE
Akebono 3.7 18:03:32 10° S 18:05:45 55° ESE 18:07:47 10° NNE
Cosmos 2219 Rocket 3.4 18:01:33 10° SW 18:06:53 44° NW 18:12:15 10° NNE
Meteor PRIRODA 4.3 18:03:58 10° S 18:07:26 57° W 18:10:58 10° NNW
Tiangong -1.0 18:06:52 10° SW 18:09:42 31° S 18:11:32 17° ESE
USA 229 DEB 4.3 18:06:19 10° SSE 18:11:25 28° ESE 18:16:51 10° NE
USA 229 4.3 18:06:25 10° SSE 18:11:30 28° ESE 18:16:56 10° NE
USA 305 3.8 18:12:46 10° W 18:14:29 19° SW 18:16:13 10° S
Cosmos 405 4.3 18:13:29 10° NNE 18:14:18 14° NE 18:14:18 14° NE
USA 307 4.5 18:14:11 10° W 18:15:53 16° SW 18:17:37 10° S
CZ-4B R/B 2.8 18:14:06 10° S 18:17:34 71° WSW 18:21:06 10° NNW
Resurs 1-3 4.5 18:17:13 15° ESE 18:19:58 29° ENE 18:23:45 10° N
SKYMED 3 4.4 18:17:01 10° NNE 18:21:13 80° ESE 18:25:24 10° S
GEOS 3 Rocket 4.4 18:19:58 10° NNE 18:25:13 54° NW 18:30:21 10° WSW
PSLV R/B 4.3 18:22:34 15° SE 18:25:27 39° ENE 18:29:08 10° N
NOSS 3-1 (A) 3.0 18:22:32 10° SSW 18:27:28 71° SE 18:33:22 10° NE
SME Rocket 4.2 18:21:41 10° SE 18:28:07 43° ENE 18:32:38 10° N
Cosmos 1733 Rocket 3.6 18:26:06 10° SSE 18:30:01 33° E 18:33:56 10° NNE
SPOT 1/Viking Rocket 4.4 18:30:18 21° ESE 18:32:32 30° ENE 18:36:57 10° N
Resurs 01 Rocket 3.1 18:32:25 19° ENE 18:32:34 19° ENE 18:35:40 10° NNE
IGS 5A 3.5 18:28:30 10° S 18:32:35 80° WSW 18:36:43 10° NNW
USA 186 3.5 18:35:27 18° NE 18:35:27 18° NE 18:36:46 10° NNE
Landsat 4 3.8 18:33:10 22° SE 18:35:14 49° ENE 18:38:46 10° N
CZ-4B DEB 4.4 18:30:51 10° S 18:36:17 77° WSW 18:41:46 10° NNW
H-2A R/B (2) 4.2 18:36:53 10° SSE 18:37:53 10° SSE 18:38:11 10° SSE
Cosmos 1269 Rocket 4.2 18:33:41 10° SSW 18:38:59 76° WNW 18:44:18 10° NNE
Cosmos 1980 3.6 18:35:07 10° SSW 18:40:45 85° ESE 18:46:26 10° NNE
Cosmos 1932 4.5 18:38:48 10° NW 18:45:16 90° NNE 18:50:14 17° SE
Okean-O 4.0 18:46:44 22° ENE 18:46:44 22° ENE 18:49:49 10° NNE
Cosmos 1766 3.9 18:43:01 10° SSW 18:46:44 55° WNW 18:50:27 10° N
CZ-4B R/B 3.0 18:41:39 10° SSE 18:46:55 73° ENE 18:52:15 10° N
Cosmos 2242 Rocket 4.1 18:42:34 10° NNW 18:47:03 64° W 18:51:32 10° S
Cosmos 1867 3.5 18:42:42 10° SSW 18:48:08 85° SE 18:53:39 10° NE
Cosmos 1140 Rocket 3.7 18:45:28 10° S 18:50:19 43° ESE 18:55:13 10° NNE
Cosmos 1378 Rocket 3.9 18:47:50 10° N 18:51:54 39° ENE 18:52:13 38° E
Cosmos 2278 Rocket 2.8 18:47:06 10° NNW 18:52:39 56° WSW 18:58:09 10° S
MOS 1-B 4.2 18:48:16 10° SSE 18:54:01 79° ENE 18:59:50 10° NNW
Feng Yun 1-1 Rocket 4.2 18:51:38 15° SSE 18:56:28 69° ENE 19:02:06 10° N
ISS -1.0 18:55:07 10° WSW 18:56:47 13° SW 18:58:27 10° SSW
CZ-4C R/B 2.8 18:54:58 10° NNE 18:58:24 66° ESE 19:01:53 10° S
Cosmos 1605 Rocket 4.1 18:53:59 10° N 18:59:53 49° ENE 19:02:32 31° SE
Cosmos 1339 Rocket 4.4 18:55:01 10° S 19:01:15 74° E 19:07:38 10° NNE
Cosmos 1934 Rocket 3.9 18:55:02 10° N 19:01:23 82° E 19:07:35 10° S
USA 267 4.2 18:58:14 19° ENE 19:02:08 36° N 19:07:59 10° NW
Cosmos 389 Rocket 3.9 18:59:44 10° N 19:01:01 22° NNE 19:01:01 22° NNE
USA 276 3.9 19:01:15 10° SW 19:02:13 20° SW 19:02:13 20° SW
NOSS 3-1 (C) 4.5 18:59:43 10° WSW 19:04:34 39° NW 19:10:22 10° NNE
Cosmos 1535 Rocket 4.4 18:59:40 10° N 19:05:46 67° E 19:09:50 22° SSE
Cosmos 2251 Rocket 3.5 19:05:20 10° S 19:10:29 56° ESE 19:15:39 10° NNE
Cosmos 1674 Rocket 3.5 19:08:32 10° N 19:12:54 59° ENE 19:12:54 59° ENE
CZ-4 R/B 2.1 19:12:15 16° S 19:15:03 47° W 19:18:45 10° NNW
Cosmos 1656 Rocket 4.3 19:13:41 10° NNW 19:18:41 35° NE 19:18:42 35° NE
Cosmos 2237 Rocket 2.9 19:13:22 10° SW 19:18:57 55° WNW 19:24:34 10° NNE
SL-4 R/B 2.7 19:15:43 10° SW 19:18:59 44° SSW 19:18:59 44° SSW
Cosmos 2369 Rocket 2.9 19:16:04 10° NNW 19:21:10 35° NE 19:21:10 35° NE
Lacrosse 5 2.4 19:17:01 10° NW 19:21:55 44° NNE 19:22:30 42° NE
SL-16 R/B 2.1 19:22:47 10° S 19:28:21 62° ESE 19:33:59 10° NNE
Cosmos 1470 4.0 19:25:09 10° SSW 19:28:49 40° WNW 19:32:29 10° N
Meteor 1-22 Rocket 4.1 19:27:24 10° SSW 19:32:41 81° WNW 19:38:03 10° N
SJ-6B 4.1 19:30:49 23° SSW 19:32:47 39° W 19:36:32 10° NNW
Cosmos 1943 Rocket 2.7 19:27:26 10° NNW 19:32:59 57° WSW 19:35:34 30° S
CZ-4C R/B 4.2 19:30:50 10° NNW 19:36:08 24° NNE 19:38:12 22° NE
Cosmos 2221 Rocket 3.8 19:34:14 10° NNW 19:38:45 70° W 19:38:56 68° WSW
ATLAS 3B R/B 4.2 19:33:09 10° W 19:39:35 35° NNW 19:46:24 10° NNE
Okean O Rocket 2.4 19:39:32 36° SSW 19:40:51 48° W 19:45:11 10° NNW
CENTAUR R/B 3.7 19:33:38 10° NNW 19:41:11 44° NE 19:43:21 38° ENE
ADEOS Rocket 3.4 19:38:43 36° SSE 19:42:13 85° ENE 19:49:26 10° NNW
Cosmos 2297 3.6 19:39:41 10° NNW 19:45:24 74° ENE 19:45:24 74° ENE
Tiangong 0.9 19:43:10 10° WSW 19:43:35 13° WSW 19:43:35 13° WSW
Cosmos 1153 Rocket 4.3 19:44:01 10° N 19:50:15 72° E 19:50:18 72° E
MOS 1 4.5 19:53:44 58° NNE 19:53:44 58° NNE 19:58:32 10° N
Cosmos 407 Rocket 3.8 19:53:51 10° SSW 19:59:03 66° WNW 20:04:22 10° NNE
USA 229 DEB 3.9 19:55:38 10° SW 20:01:46 63° NW 20:08:34 10° NE
USA 229 3.9 19:55:42 10° SW 20:01:51 64° NW 20:08:40 10° NE
Meteor 1-24 Rocket 4.4 19:58:36 10° NNW 20:03:43 46° W 20:04:58 39° SW
NOSS 3-2 (A) 4.4 20:00:29 10° NNW 20:07:24 46° NE 20:07:54 45° NE
Resurs 01 Rocket 2.9 20:09:57 38° NW 20:09:57 38° NW 20:13:01 10° NNW
Cosmos 2100 Rocket 4.5 20:09:48 10° N 20:14:21 50° NNE 20:14:21 50° NNE
Okean-O 4.5 20:24:15 29° NW 20:24:15 29° NW 20:26:47 10° NNW
USA 267 3.7 20:45:35 55° NNW 20:45:35 55° NNW 20:50:57 10° NW
Terra 4.5 20:57:51 14° N 20:57:51 14° N 20:58:32 10° N
Lacrosse 5 4.2 21:00:05 10° WNW 21:01:41 20° WNW 21:01:41 20° WNW
Cosmos 2369 Rocket 3.9 21:00:03 10° NW 21:02:57 28° WNW 21:02:57 28° WNW
SL-16 R/B 4.1 21:08:14 10° WSW 21:12:55 26° NW 21:17:37 10° N
CZ-4C R/B 3.8 21:18:54 10° NW 21:23:20 42° NNW 21:23:20 42° NNW
CENTAUR R/B 3.7 21:24:15 10° NW 21:30:30 54° WNW 21:30:30 54° WNW
